START_TIME,STEP,MOV.,M35,t_acc.,PL05,t_acc.,PL06,t_acc.,PL07,t_acc.
1980-11-15 18:00:12.490 ,1,0,0.,4.8,0.,4.8,1.,4.8,1.,4.8
1980-11-15 18:00:17.290 ,1,0,0.,4.8,1.,4.8,0.,4.8,0.,4.8
1980-11-15 18:00:22.090 ,1,0,0.,4.8,2.,4.8,0.,4.8,1.,4.8
1980-11-15 18:00:26.890 ,1,0,0.,4.8,2.,4.8,0.,4.8,0.,4.8
1980-11-15 18:00:31.690 ,1,0,0.,4.8,3.,4.8,1.,4.8,1.,4.8
1980-11-15 18:00:36.490 ,2,0,0.,4.8,0.,4.8,0.,4.8,0.,4.8
1980-11-15 18:00:41.290 ,2,0,0.,4.8,1.,4.8,0.,4.8,0.,4.8
1980-11-15 18:00:46.090 ,2,0,0.,4.8,2.,4.8,1.,4.8,0.,4.8
1980-11-15 18:00:50.890 ,2,0,0.,4.8,1.,4.8,3.,4.8,0.,4.8
1980-11-15 18:00:55.690 ,2,0,0.,4.8,1.,4.8,1.,4.8,0.,4.8
1980-11-15 18:01:00.490 ,2,0,0.,4.8,0.,4.8,1.,4.8,0.,4.8
1980-11-15 18:01:05.290 ,2,0,0.,4.8,0.,4.8,0.,4.8,0.,4.8
1980-11-15 18:01:10.090 ,2,0,0.,4.8,1.,4.8,0.,4.8,0.,4.8
1980-11-15 18:01:14.890 ,2,0,0.,4.8,1.,4.8,0.,4.8,0.,4.8
1980-11-15 18:01:19.690 ,2,0,0.,4.8,0.,4.8,0.,4.8,0.,4.8
1980-11-15 18:01:24.490 ,3,0,0.,4.8,2.,4.8,1.,4.8,0.,4.8
1980-11-15 18:01:29.290 ,3,0,0.,4.8,1.,4.8,0.,4.8,0.,4.8
1980-11-15 18:01:34.090 ,3,0,0.,4.8,1.,4.8,0.,4.8,0.,4.8
1980-11-15 18:01:38.890 ,3,0,0.,4.8,1.,4.8,0.,4.8,0.,4.8
1980-11-15 18:01:43.690 ,3,0,0.,4.8,0.,4.8,0.,4.8,0.,4.8
1980-11-15 18:01:48.490 ,0,0,0.,4.8,1.,4.8,1.,4.8,0.,4.8
1980-11-15 18:01:53.290 ,0,0,0.,4.8,1.,4.8,0.,4.8,0.,4.8
1980-11-15 18:01:58.090 ,0,0,0.,4.8,1.,4.8,1.,4.8,1.,4.8
1980-11-15 18:02:02.890 ,0,0,0.,4.8,2.,4.8,0.,4.8,1.,4.8
1980-11-15 18:02:07.690 ,0,0,0.,4.8,1.,4.8,0.,4.8,1.,4.8
1980-11-15 18:02:37.690 ,0,0,0.,4.8,0.,4.8,0.,4.8,0.,4.8
1980-11-15 18:02:42.490 ,0,0,0.,4.8,2.,4.8,0.,4.8,0.,4.8
1980-11-15 18:02:47.290 ,0,0,0.,4.8,1.,4.8,0.,4.8,0.,4.8
1980-11-15 18:02:52.090 ,0,0,0.,4.8,2.,4.8,0.,4.8,0.,4.8
1980-11-15 18:02:56.890 ,0,0,0.,4.8,0.,4.8,0.,4.8,0.,4.8
1980-11-15 18:03:00.490 ,5,0,0.,4.8,0.,4.8,0.,4.8,1.,4.8
1980-11-15 18:03:05.290 ,5,0,0.,4.8,0.,4.8,0.,4.8,1.,4.8
1980-11-15 18:03:10.090 ,5,0,0.,4.8,1.,4.8,0.,4.8,0.,4.8
1980-11-15 18:03:14.890 ,5,0,0.,4.8,0.,4.8,0.,4.8,0.,4.8
1980-11-15 18:03:19.690 ,5,0,0.,4.8,1.,4.8,0.,4.8,0.,4.8
1980-11-15 18:03:24.490 ,5,0,0.,4.8,1.,4.8,2.,4.8,0.,4.8
1980-11-15 18:03:29.290 ,5,0,0.,4.8,0.,4.8,0.,4.8,1.,4.8
1980-11-15 18:03:34.090 ,5,0,0.,4.8,1.,4.8,0.,4.8,0.,4.8
1980-11-15 18:03:38.890 ,5,0,0.,4.8,0.,4.8,0.,4.8,0.,4.8
1980-11-15 18:03:43.690 ,5,0,0.,4.8,0.,4.8,0.,4.8,0.,4.8
1980-11-15 18:03:48.490 ,6,0,0.,4.8,0.,4.8,0.,4.8,0.,4.8
1980-11-15 18:03:53.290 ,6,0,0.,4.8,0.,4.8,0.,4.8,0.,4.8
1980-11-15 18:03:58.090 ,6,0,0.,4.8,0.,4.8,1.,4.8,0.,4.8
1980-11-15 18:04:02.890 ,6,0,0.,4.8,1.,4.8,0.,4.8,0.,4.8
1980-11-15 18:04:07.690 ,6,0,0.,4.8,0.,4.8,0.,4.8,0.,4.8
1980-11-15 18:04:12.490 ,6,0,0.,4.8,1.,4.8,0.,4.8,1.,4.8
1980-11-15 18:04:17.290 ,6,0,0.,4.8,0.,4.8,0.,4.8,0.,4.8
1980-11-15 18:04:22.090 ,6,0,0.,4.8,0.,4.8,0.,4.8,0.,4.8
1980-11-15 18:04:26.890 ,6,0,0.,4.8,1.,4.8,1.,4.8,0.,4.8
1980-11-15 18:04:31.690 ,6,0,0.,4.8,1.,4.8,0.,4.8,0.,4.8
1980-11-15 18:04:36.490 ,7,0,0.,4.8,0.,4.8,1.,4.8,0.,4.8
1980-11-15 18:04:41.290 ,7,0,0.,4.8,1.,4.8,0.,4.8,0.,4.8
1980-11-15 18:04:46.090 ,7,0,0.,4.8,2.,4.8,0.,4.8,1.,4.8
1980-11-15 18:04:50.890 ,7,0,0.,4.8,0.,4.8,0.,4.8,0.,4.8
1980-11-15 18:04:55.690 ,7,0,0.,4.8,0.,4.8,0.,4.8,0.,4.8
1980-11-15 18:05:00.490 ,7,0,0.,4.8,0.,4.8,0.,4.8,1.,4.8
1980-11-15 18:05:05.290 ,7,0,0.,4.8,1.,4.8,1.,4.8,0.,4.8
1980-11-15 18:05:10.090 ,7,0,0.,4.8,0.,4.8,0.,4.8,0.,4.8
1980-11-15 18:05:14.890 ,7,0,0.,4.8,1.,4.8,0.,4.8,0.,4.8
1980-11-15 18:05:19.690 ,7,0,0.,4.8,2.,4.8,1.,4.8,0.,4.8
1980-11-15 18:05:24.490 ,7,0,0.,4.8,0.,4.8,1.,4.8,1.,4.8
1980-11-15 18:05:29.290 ,7,0,0.,4.8,0.,4.8,0.,4.8,0.,4.8
1980-11-15 18:05:34.090 ,7,0,0.,4.8,1.,4.8,1.,4.8,1.,4.8
1980-11-15 18:05:38.890 ,7,0,0.,4.8,0.,4.8,1.,4.8,0.,4.8
1980-11-15 18:05:43.690 ,7,0,0.,4.8,1.,4.8,0.,4.8,0.,4.8
1980-11-15 18:05:48.490 ,7,0,0.,4.8,0.,4.8,0.,4.8,0.,4.8
1980-11-15 18:05:53.290 ,7,0,0.,4.8,0.,4.8,0.,4.8,0.,4.8
1980-11-15 18:05:58.090 ,7,0,0.,4.8,0.,4.8,1.,4.8,1.,4.8
1980-11-15 18:06:02.890 ,7,0,0.,4.8,0.,4.8,0.,4.8,0.,4.8
1980-11-15 18:06:07.690 ,7,0,0.,4.8,1.,4.8,0.,4.8,0.,4.8
1980-11-15 18:06:12.490 ,6,0,0.,4.8,0.,4.8,1.,4.8,0.,4.8
1980-11-15 18:06:17.290 ,6,0,0.,4.8,1.,4.8,0.,4.8,1.,4.8
1980-11-15 18:06:22.090 ,6,0,0.,4.8,1.,4.8,0.,4.8,0.,4.8
1980-11-15 18:06:26.890 ,6,0,0.,4.8,0.,4.8,0.,4.8,0.,4.8
1980-11-15 18:06:31.690 ,6,0,0.,4.8,0.,4.8,0.,4.8,0.,4.8
1980-11-15 18:06:36.490 ,6,0,0.,4.8,0.,4.8,0.,4.8,0.,4.8
1980-11-15 18:06:41.290 ,6,0,0.,4.8,2.,4.8,1.,4.8,0.,4.8
1980-11-15 18:06:46.090 ,6,0,0.,4.8,0.,4.8,0.,4.8,0.,4.8
1980-11-15 18:06:50.890 ,6,0,0.,4.8,0.,4.8,0.,4.8,1.,4.8
1980-11-15 18:06:55.690 ,6,0,0.,4.8,1.,4.8,0.,4.8,0.,4.8
1980-11-15 18:07:00.490 ,5,0,0.,4.8,0.,4.8,0.,4.8,0.,4.8
1980-11-15 18:07:05.290 ,5,0,0.,4.8,0.,4.8,0.,4.8,0.,4.8
1980-11-15 18:07:10.090 ,5,0,0.,4.8,0.,4.8,0.,4.8,1.,4.8
1980-11-15 18:07:14.890 ,5,0,0.,4.8,0.,4.8,0.,4.8,0.,4.8
1980-11-15 18:07:19.690 ,5,0,0.,4.8,2.,4.8,0.,4.8,0.,4.8
1980-11-15 18:07:24.490 ,5,0,0.,4.8,0.,4.8,0.,4.8,0.,4.8
1980-11-15 18:07:29.290 ,5,0,0.,4.8,0.,4.8,0.,4.8,0.,4.8
1980-11-15 18:07:34.090 ,5,0,0.,4.8,0.,4.8,0.,4.8,0.,4.8
1980-11-15 18:07:38.890 ,5,0,0.,4.8,0.,4.8,0.,4.8,0.,4.8
1980-11-15 18:07:43.690 ,5,0,0.,4.8,0.,4.8,0.,4.8,0.,4.8
1980-11-15 18:07:48.490 ,4,0,0.,4.8,0.,4.8,0.,4.8,0.,4.8
1980-11-15 18:07:53.290 ,4,0,0.,4.8,1.,4.8,0.,4.8,0.,4.8
1980-11-15 18:07:58.090 ,4,0,0.,4.8,1.,4.8,0.,4.8,0.,4.8
1980-11-15 18:08:02.890 ,4,0,0.,4.8,1.,4.8,0.,4.8,0.,4.8
1980-11-15 18:08:07.690 ,4,0,0.,4.8,1.,4.8,0.,4.8,2.,4.8
1980-11-15 18:08:12.490 ,4,0,0.,4.8,0.,4.8,0.,4.8,0.,4.8
1980-11-15 18:08:17.290 ,4,0,0.,4.8,2.,4.8,0.,4.8,2.,4.8
1980-11-15 18:08:22.090 ,4,0,0.,4.8,1.,4.8,0.,4.8,0.,4.8
1980-11-15 18:08:26.890 ,4,0,0.,4.8,0.,4.8,2.,4.8,0.,4.8
1980-11-15 18:08:31.690 ,4,0,0.,4.8,0.,4.8,0.,4.8,0.,4.8
1980-11-15 18:08:36.490 ,3,0,0.,4.8,1.,4.8,0.,4.8,0.,4.8
1980-11-15 18:08:41.290 ,3,0,0.,4.8,1.,4.8,1.,4.8,0.,4.8
1980-11-15 18:08:46.090 ,3,0,0.,4.8,1.,4.8,1.,4.8,0.,4.8
1980-11-15 18:08:50.890 ,3,0,0.,4.8,0.,4.8,0.,4.8,0.,4.8
1980-11-15 18:08:55.690 ,3,0,0.,4.8,1.,4.8,0.,4.8,0.,4.8
1980-11-15 18:09:00.490 ,3,0,0.,4.8,1.,4.8,0.,4.8,0.,4.8
1980-11-15 18:09:05.290 ,3,0,0.,4.8,0.,4.8,0.,4.8,0.,4.8
1980-11-15 18:09:10.090 ,3,0,0.,4.8,3.,4.8,0.,4.8,0.,4.8
1980-11-15 18:09:14.890 ,3,0,0.,4.8,1.,4.8,0.,4.8,0.,4.8
1980-11-15 18:09:19.690 ,3,0,0.,4.8,1.,4.8,0.,4.8,0.,4.8
1980-11-15 18:09:24.490 ,2,0,0.,4.8,3.,4.8,0.,4.8,0.,4.8
1980-11-15 18:09:29.290 ,2,0,0.,4.8,0.,4.8,0.,4.8,0.,4.8
1980-11-15 18:09:34.090 ,2,0,0.,4.8,3.,4.8,0.,4.8,0.,4.8
1980-11-15 18:09:38.890 ,2,0,0.,4.8,3.,4.8,1.,4.8,0.,4.8
1980-11-15 18:09:43.690 ,2,0,0.,4.8,2.,4.8,0.,4.8,0.,4.8
1980-11-15 18:09:48.490 ,2,0,0.,4.8,3.,4.8,0.,4.8,0.,4.8
1980-11-15 18:09:53.290 ,2,0,0.,4.8,2.,4.8,0.,4.8,0.,4.8
1980-11-15 18:09:58.090 ,2,0,0.,4.8,1.,4.8,1.,4.8,0.,4.8
1980-11-15 18:10:02.890 ,2,0,0.,4.8,2.,4.8,1.,4.8,2.,4.8
1980-11-15 18:10:07.690 ,2,0,0.,4.8,2.,4.8,2.,4.8,0.,4.8
1980-11-15 18:10:12.490 ,1,0,0.,4.8,0.,4.8,0.,4.8,0.,4.8
1980-11-15 18:10:17.290 ,1,0,0.,4.8,2.,4.8,1.,4.8,1.,4.8
1980-11-15 18:10:22.090 ,1,0,0.,4.8,2.,4.8,0.,4.8,0.,4.8
1980-11-15 18:10:26.890 ,1,0,0.,4.8,4.,4.8,0.,4.8,0.,4.8
1980-11-15 18:10:31.690 ,1,0,0.,4.8,0.,4.8,0.,4.8,1.,4.8
1980-11-15 18:10:36.490 ,1,0,0.,4.8,2.,4.8,0.,4.8,0.,4.8
1980-11-15 18:10:41.290 ,1,0,0.,4.8,1.,4.8,0.,4.8,0.,4.8
1980-11-15 18:10:46.090 ,1,0,0.,4.8,2.,4.8,0.,4.8,0.,4.8
1980-11-15 18:10:50.890 ,1,0,0.,4.8,2.,4.8,0.,4.8,0.,4.8
1980-11-15 18:10:55.690 ,1,0,0.,4.8,1.,4.8,0.,4.8,0.,4.8
1980-11-15 18:11:00.490 ,0,0,0.,4.8,1.,4.8,2.,4.8,0.,4.8
1980-11-15 18:11:05.290 ,0,0,0.,4.8,0.,4.8,2.,4.8,0.,4.8
1980-11-15 18:11:10.090 ,0,0,0.,4.8,2.,4.8,0.,4.8,0.,4.8
1980-11-15 18:11:14.890 ,0,0,0.,4.8,0.,4.8,2.,4.8,0.,4.8
1980-11-15 18:11:19.690 ,0,0,0.,4.8,2.,4.8,1.,4.8,0.,4.8
1980-11-15 18:11:24.490 ,0,0,0.,4.8,1.,4.8,0.,4.8,0.,4.8
1980-11-15 18:11:29.290 ,0,0,0.,4.8,1.,4.8,0.,4.8,0.,4.8
1980-11-15 18:11:34.090 ,0,0,0.,4.8,2.,4.8,0.,4.8,0.,4.8
1980-11-15 18:11:38.890 ,0,0,0.,4.8,0.,4.8,0.,4.8,0.,4.8
1980-11-15 18:11:43.690 ,0,0,0.,4.8,1.,4.8,0.,4.8,0.,4.8
1980-11-15 18:11:48.490 ,0,0,0.,4.8,0.,4.8,0.,4.8,0.,4.8
1980-11-15 18:11:53.290 ,0,0,0.,4.8,2.,4.8,1.,4.8,0.,4.8
1980-11-15 18:11:58.090 ,0,0,0.,4.8,1.,4.8,0.,4.8,1.,4.8
1980-11-15 18:12:02.890 ,0,0,0.,4.8,2.,4.8,0.,4.8,1.,4.8
1980-11-15 18:12:07.690 ,0,0,0.,4.8,0.,4.8,2.,4.8,0.,4.8
1980-11-15 18:12:12.490 ,0,0,0.,4.8,1.,4.8,0.,4.8,2.,4.8
1980-11-15 18:12:17.290 ,0,0,0.,4.8,2.,4.8,1.,4.8,1.,4.8
1980-11-15 18:12:22.090 ,0,0,0.,4.8,0.,4.8,0.,4.8,0.,4.8
1980-11-15 18:12:26.890 ,0,0,0.,4.8,1.,4.8,0.,4.8,0.,4.8
1980-11-15 18:12:31.690 ,0,0,0.,4.8,4.,4.8,0.,4.8,0.,4.8
1980-11-15 18:12:36.490 ,1,0,0.,4.8,1.,4.8,1.,4.8,0.,4.8
1980-11-15 18:12:41.290 ,1,0,0.,4.8,0.,4.8,1.,4.8,0.,4.8
1980-11-15 18:12:46.090 ,1,0,0.,4.8,2.,4.8,0.,4.8,0.,4.8
1980-11-15 18:12:50.890 ,1,0,0.,4.8,0.,4.8,1.,4.8,0.,4.8
1980-11-15 18:12:55.690 ,1,0,0.,4.8,0.,4.8,0.,4.8,0.,4.8
1980-11-15 18:13:00.490 ,1,0,0.,4.8,1.,4.8,0.,4.8,0.,4.8
1980-11-15 18:13:05.290 ,1,0,0.,4.8,2.,4.8,0.,4.8,0.,4.8
1980-11-15 18:13:10.090 ,1,0,0.,4.8,1.,4.8,0.,4.8,0.,4.8
1980-11-15 18:13:14.890 ,1,0,0.,4.8,1.,4.8,0.,4.8,0.,4.8
1980-11-15 18:13:19.690 ,1,0,0.,4.8,0.,4.8,0.,4.8,1.,4.8
1980-11-15 18:13:24.490 ,2,0,0.,4.8,1.,4.8,0.,4.8,0.,4.8
1980-11-15 18:13:29.290 ,2,0,0.,4.8,1.,4.8,0.,4.8,0.,4.8
1980-11-15 18:13:34.090 ,2,0,0.,4.8,1.,4.8,1.,4.8,0.,4.8
1980-11-15 18:13:38.890 ,2,0,0.,4.8,0.,4.8,1.,4.8,0.,4.8
1980-11-15 18:13:43.690 ,2,0,0.,4.8,0.,4.8,2.,4.8,1.,4.8
1980-11-15 18:13:48.490 ,2,0,0.,4.8,0.,4.8,0.,4.8,0.,4.8
1980-11-15 18:13:53.290 ,2,0,0.,4.8,2.,4.8,1.,4.8,0.,4.8
1980-11-15 18:13:58.090 ,2,0,0.,4.8,0.,4.8,0.,4.8,0.,4.8
1980-11-15 18:14:02.890 ,2,0,0.,4.8,1.,4.8,2.,4.8,0.,4.8
1980-11-15 18:14:07.690 ,2,0,0.,4.8,1.,4.8,1.,4.8,0.,4.8
1980-11-15 18:14:12.490 ,3,0,0.,4.8,0.,4.8,0.,4.8,0.,4.8
1980-11-15 18:14:17.290 ,3,0,0.,4.8,1.,4.8,0.,4.8,0.,4.8
1980-11-15 18:14:22.090 ,3,0,0.,4.8,0.,4.8,0.,4.8,0.,4.8
1980-11-15 18:14:26.890 ,3,0,0.,4.8,1.,4.8,0.,4.8,1.,4.8
1980-11-15 18:14:31.690 ,3,0,0.,4.8,2.,4.8,0.,4.8,0.,4.8
1980-11-15 18:14:36.490 ,3,0,0.,4.8,1.,4.8,0.,4.8,1.,4.8
1980-11-15 18:14:41.290 ,3,0,0.,4.8,2.,4.8,1.,4.8,0.,4.8
1980-11-15 18:14:46.090 ,3,0,0.,4.8,1.,4.8,0.,4.8,0.,4.8
1980-11-15 18:14:50.890 ,3,0,0.,4.8,0.,4.8,0.,4.8,0.,4.8
1980-11-15 18:14:55.690 ,3,0,0.,4.8,1.,4.8,0.,4.8,1.,4.8
1980-11-15 18:15:00.490 ,4,0,0.,4.8,2.,4.8,1.,4.8,0.,4.8
1980-11-15 18:15:05.290 ,4,0,0.,4.8,1.,4.8,0.,4.8,0.,4.8
1980-11-15 18:15:10.090 ,4,0,0.,4.8,0.,4.8,1.,4.8,1.,4.8
1980-11-15 18:15:14.890 ,4,0,0.,4.8,0.,4.8,1.,4.8,0.,4.8
1980-11-15 18:15:19.690 ,4,0,0.,4.8,2.,4.8,0.,4.8,0.,4.8
1980-11-15 18:15:24.490 ,4,0,0.,4.8,0.,4.8,0.,4.8,0.,4.8
1980-11-15 18:15:29.290 ,4,0,0.,4.8,2.,4.8,0.,4.8,0.,4.8
1980-11-15 18:15:34.090 ,4,0,0.,4.8,1.,4.8,0.,4.8,0.,4.8
1980-11-15 18:15:38.890 ,4,0,0.,4.8,1.,4.8,1.,4.8,0.,4.8
1980-11-15 18:15:43.690 ,4,0,0.,4.8,1.,4.8,0.,4.8,0.,4.8
1980-11-15 18:15:48.490 ,5,0,0.,4.8,0.,4.8,0.,4.8,0.,4.8
1980-11-15 18:15:53.290 ,5,0,0.,4.8,2.,4.8,1.,4.8,0.,4.8
1980-11-15 18:15:58.090 ,5,0,0.,4.8,0.,4.8,1.,4.8,0.,4.8
1980-11-15 18:16:02.890 ,5,0,0.,4.8,1.,4.8,0.,4.8,0.,4.8
1980-11-15 18:16:07.690 ,5,0,0.,4.8,0.,4.8,1.,4.8,0.,4.8
1980-11-15 18:16:12.490 ,5,0,0.,4.8,0.,4.8,0.,4.8,0.,4.8
1980-11-15 18:16:17.290 ,5,0,0.,4.8,3.,4.8,0.,4.8,1.,4.8
1980-11-15 18:16:22.090 ,5,0,0.,4.8,2.,4.8,0.,4.8,1.,4.8
1980-11-15 18:16:26.890 ,5,0,0.,4.8,1.,4.8,0.,4.8,0.,4.8
1980-11-15 18:16:31.690 ,5,0,0.,4.8,0.,4.8,1.,4.8,0.,4.8
1980-11-15 18:16:36.490 ,6,0,0.,4.8,0.,4.8,0.,4.8,1.,4.8
1980-11-15 18:16:41.290 ,6,0,0.,4.8,1.,4.8,0.,4.8,1.,4.8
1980-11-15 18:16:46.090 ,6,0,0.,4.8,0.,4.8,0.,4.8,0.,4.8
1980-11-15 18:16:50.890 ,6,0,0.,4.8,0.,4.8,0.,4.8,0.,4.8
1980-11-15 18:16:55.690 ,6,0,0.,4.8,1.,4.8,0.,4.8,0.,4.8
1980-11-15 18:17:00.490 ,6,0,0.,4.8,1.,4.8,0.,4.8,1.,4.8
1980-11-15 18:17:05.290 ,6,0,0.,4.8,0.,4.8,1.,4.8,0.,4.8
1980-11-15 18:17:10.090 ,6,0,0.,4.8,1.,4.8,1.,4.8,0.,4.8
1980-11-15 18:17:14.890 ,6,0,0.,4.8,1.,4.8,0.,4.8,0.,4.8
1980-11-15 18:17:19.690 ,6,0,0.,4.8,1.,4.8,0.,4.8,0.,4.8
1980-11-15 18:17:24.490 ,7,0,0.,4.8,1.,4.8,0.,4.8,0.,4.8
1980-11-15 18:17:29.290 ,7,0,0.,4.8,0.,4.8,0.,4.8,0.,4.8
1980-11-15 18:17:34.090 ,7,0,0.,4.8,1.,4.8,1.,4.8,0.,4.8
1980-11-15 18:17:38.890 ,7,0,0.,4.8,0.,4.8,0.,4.8,0.,4.8
1980-11-15 18:17:43.690 ,7,0,0.,4.8,0.,4.8,1.,4.8,0.,4.8
1980-11-15 18:17:48.490 ,7,0,0.,4.8,1.,4.8,0.,4.8,0.,4.8
1980-11-15 18:17:53.290 ,7,0,0.,4.8,0.,4.8,0.,4.8,0.,4.8
1980-11-15 18:17:58.090 ,7,0,0.,4.8,0.,4.8,2.,4.8,0.,4.8
1980-11-15 18:18:02.890 ,7,0,0.,4.8,0.,4.8,0.,4.8,0.,4.8
1980-11-15 18:18:07.690 ,7,0,0.,4.8,0.,4.8,1.,4.8,0.,4.8
1980-11-15 18:18:12.490 ,7,0,0.,4.8,0.,4.8,0.,4.8,1.,4.8
1980-11-15 18:18:17.290 ,7,0,0.,4.8,0.,4.8,0.,4.8,0.,4.8
1980-11-15 18:18:22.090 ,7,0,0.,4.8,0.,4.8,0.,4.8,0.,4.8
1980-11-15 18:18:26.890 ,7,0,0.,4.8,0.,4.8,0.,4.8,0.,4.8
1980-11-15 18:18:31.690 ,7,0,0.,4.8,0.,4.8,0.,4.8,2.,4.8
1980-11-15 18:18:36.490 ,7,0,0.,4.8,1.,4.8,1.,4.8,1.,4.8
1980-11-15 18:18:41.290 ,7,0,0.,4.8,0.,4.8,0.,4.8,0.,4.8
1980-11-15 18:18:46.090 ,7,0,0.,4.8,1.,4.8,0.,4.8,0.,4.8
1980-11-15 18:18:50.890 ,7,0,0.,4.8,0.,4.8,0.,4.8,0.,4.8
1980-11-15 18:18:55.690 ,7,0,0.,4.8,0.,4.8,0.,4.8,1.,4.8
1980-11-15 18:19:00.490 ,6,0,0.,4.8,1.,4.8,2.,4.8,1.,4.8
1980-11-15 18:19:05.290 ,6,0,0.,4.8,2.,4.8,1.,4.8,2.,4.8
1980-11-15 18:19:10.090 ,6,0,0.,4.8,1.,4.8,0.,4.8,0.,4.8
1980-11-15 18:19:14.890 ,6,0,0.,4.8,0.,4.8,0.,4.8,1.,4.8
1980-11-15 18:19:19.690 ,6,0,0.,4.8,0.,4.8,0.,4.8,0.,4.8
1980-11-15 18:19:24.490 ,6,0,0.,4.8,1.,4.8,0.,4.8,0.,4.8
1980-11-15 18:19:29.290 ,6,0,0.,4.8,1.,4.8,0.,4.8,0.,4.8
1980-11-15 18:19:34.090 ,6,0,0.,4.8,0.,4.8,0.,4.8,0.,4.8
1980-11-15 18:19:38.890 ,6,0,0.,4.8,0.,4.8,0.,4.8,0.,4.8
1980-11-15 18:19:43.690 ,6,0,0.,4.8,0.,4.8,0.,4.8,0.,4.8
1980-11-15 18:19:48.490 ,5,0,0.,4.8,1.,4.8,2.,4.8,0.,4.8
1980-11-15 18:19:53.290 ,5,0,0.,4.8,1.,4.8,0.,4.8,0.,4.8
1980-11-15 18:19:58.090 ,5,0,0.,4.8,0.,4.8,0.,4.8,0.,4.8
1980-11-15 18:20:02.890 ,5,0,0.,4.8,1.,4.8,0.,4.8,0.,4.8
1980-11-15 18:20:07.690 ,5,0,0.,4.8,1.,4.8,0.,4.8,0.,4.8
1980-11-15 18:20:12.490 ,5,0,0.,4.8,0.,4.8,1.,4.8,0.,4.8
1980-11-15 18:20:17.290 ,5,0,0.,4.8,1.,4.8,0.,4.8,0.,4.8
1980-11-15 18:20:22.090 ,5,0,0.,4.8,0.,4.8,0.,4.8,1.,4.8
1980-11-15 18:20:26.890 ,5,0,0.,4.8,0.,4.8,1.,4.8,2.,4.8
1980-11-15 18:20:31.690 ,5,0,0.,4.8,0.,4.8,0.,4.8,0.,4.8
1980-11-15 18:20:36.490 ,4,0,0.,4.8,3.,4.8,0.,4.8,0.,4.8
1980-11-15 18:20:41.290 ,4,0,0.,4.8,0.,4.8,0.,4.8,0.,4.8
1980-11-15 18:20:46.090 ,4,0,0.,4.8,1.,4.8,0.,4.8,0.,4.8
1980-11-15 18:20:50.890 ,4,0,0.,4.8,0.,4.8,1.,4.8,1.,4.8
1980-11-15 18:20:55.690 ,4,0,0.,4.8,2.,4.8,2.,4.8,0.,4.8
1980-11-15 18:21:00.490 ,4,0,0.,4.8,1.,4.8,0.,4.8,0.,4.8
1980-11-15 18:21:05.290 ,4,0,0.,4.8,1.,4.8,0.,4.8,0.,4.8
1980-11-15 18:21:10.090 ,4,0,0.,4.8,0.,4.8,0.,4.8,0.,4.8
1980-11-15 18:21:14.890 ,4,0,0.,4.8,0.,4.8,0.,4.8,0.,4.8
1980-11-15 18:21:19.690 ,4,0,0.,4.8,1.,4.8,0.,4.8,0.,4.8
1980-11-15 18:21:24.490 ,3,0,0.,4.8,0.,4.8,0.,4.8,0.,4.8
1980-11-15 18:21:29.290 ,3,0,0.,4.8,1.,4.8,0.,4.8,0.,4.8
1980-11-15 18:21:34.090 ,3,0,0.,4.8,1.,4.8,0.,4.8,0.,4.8
1980-11-15 18:21:38.890 ,3,0,0.,4.8,0.,4.8,1.,4.8,1.,4.8
1980-11-15 18:21:43.690 ,3,0,0.,4.8,0.,4.8,0.,4.8,1.,4.8
1980-11-15 18:21:48.490 ,3,0,0.,4.8,1.,4.8,0.,4.8,0.,4.8
1980-11-15 18:21:53.290 ,3,0,0.,4.8,2.,4.8,0.,4.8,1.,4.8
1980-11-15 18:21:58.090 ,3,0,0.,4.8,1.,4.8,0.,4.8,0.,4.8
1980-11-15 18:22:02.890 ,3,0,0.,4.8,0.,4.8,0.,4.8,0.,4.8
1980-11-15 18:22:07.690 ,3,0,0.,4.8,2.,4.8,2.,4.8,0.,4.8
1980-11-15 18:22:12.490 ,2,0,0.,4.8,0.,4.8,0.,4.8,1.,4.8
1980-11-15 18:22:17.290 ,2,0,0.,4.8,0.,4.8,0.,4.8,0.,4.8
1980-11-15 18:22:22.090 ,2,0,0.,4.8,0.,4.8,0.,4.8,1.,4.8
1980-11-15 18:22:26.890 ,2,0,0.,4.8,2.,4.8,2.,4.8,0.,4.8
1980-11-15 18:22:31.690 ,2,0,0.,4.8,1.,4.8,0.,4.8,0.,4.8
1980-11-15 18:22:36.490 ,2,0,0.,4.8,0.,4.8,0.,4.8,0.,4.8
1980-11-15 18:22:41.290 ,2,0,0.,4.8,0.,4.8,0.,4.8,2.,4.8
1980-11-15 18:22:46.090 ,2,0,0.,4.8,2.,4.8,0.,4.8,0.,4.8
1980-11-15 18:22:50.890 ,2,0,0.,4.8,0.,4.8,0.,4.8,1.,4.8
1980-11-15 18:22:55.690 ,2,0,0.,4.8,0.,4.8,1.,4.8,0.,4.8
1980-11-15 18:23:00.490 ,1,0,0.,4.8,1.,4.8,0.,4.8,0.,4.8
1980-11-15 18:23:05.290 ,1,0,0.,4.8,1.,4.8,0.,4.8,0.,4.8
1980-11-15 18:23:10.090 ,1,0,0.,4.8,2.,4.8,0.,4.8,0.,4.8
1980-11-15 18:23:14.890 ,1,0,0.,4.8,1.,4.8,1.,4.8,0.,4.8
1980-11-15 18:23:19.690 ,1,0,0.,4.8,0.,4.8,0.,4.8,1.,4.8
1980-11-15 18:23:24.490 ,1,0,0.,4.8,2.,4.8,0.,4.8,0.,4.8
1980-11-15 18:23:29.290 ,1,0,0.,4.8,0.,4.8,0.,4.8,0.,4.8
1980-11-15 18:23:34.090 ,1,0,0.,4.8,1.,4.8,0.,4.8,0.,4.8
1980-11-15 18:23:38.890 ,1,0,0.,4.8,0.,4.8,0.,4.8,1.,4.8
1980-11-15 18:23:43.690 ,1,0,0.,4.8,0.,4.8,1.,4.8,0.,4.8
1980-11-15 18:23:48.490 ,0,0,0.,4.8,1.,4.8,1.,4.8,0.,4.8
1980-11-15 18:23:53.290 ,0,0,0.,4.8,0.,4.8,0.,4.8,0.,4.8
1980-11-15 18:23:58.090 ,0,0,0.,4.8,0.,4.8,0.,4.8,0.,4.8
1980-11-15 18:24:02.890 ,0,0,0.,4.8,0.,4.8,0.,4.8,0.,4.8
1980-11-15 18:24:07.690 ,0,0,0.,4.8,2.,4.8,1.,4.8,0.,4.8
1980-11-15 18:24:12.490 ,0,0,0.,4.8,0.,4.8,0.,4.8,0.,4.8
1980-11-15 18:24:17.290 ,0,0,0.,4.8,0.,4.8,0.,4.8,0.,4.8
1980-11-15 18:24:22.090 ,0,0,0.,4.8,0.,4.8,0.,4.8,0.,4.8
1980-11-15 18:24:26.890 ,0,0,0.,4.8,2.,4.8,0.,4.8,2.,4.8
1980-11-15 18:24:31.690 ,0,0,0.,4.8,0.,4.8,0.,4.8,0.,4.8
1980-11-15 18:24:36.490 ,0,0,0.,4.8,1.,4.8,0.,4.8,0.,4.8
1980-11-15 18:24:41.290 ,0,0,0.,4.8,2.,4.8,0.,4.8,1.,4.8
1980-11-15 18:24:46.090 ,0,0,0.,4.8,0.,4.8,1.,4.8,0.,4.8
1980-11-15 18:24:50.890 ,0,0,0.,4.8,0.,4.8,0.,4.8,0.,4.8
1980-11-15 18:24:55.690 ,0,0,0.,4.8,2.,4.8,1.,4.8,0.,4.8
1980-11-15 18:25:00.490 ,0,0,0.,4.8,1.,4.8,0.,4.8,1.,4.8
1980-11-15 18:25:05.290 ,0,0,0.,4.8,1.,4.8,0.,4.8,0.,4.8
1980-11-15 18:25:10.090 ,0,0,0.,4.8,0.,4.8,0.,4.8,0.,4.8
1980-11-15 18:25:14.890 ,0,0,0.,4.8,0.,4.8,0.,4.8,0.,4.8
1980-11-15 18:25:19.690 ,0,0,0.,4.8,0.,4.8,0.,4.8,1.,4.8
1980-11-15 18:25:24.490 ,1,0,0.,4.8,0.,4.8,1.,4.8,0.,4.8
1980-11-15 18:25:29.290 ,1,0,0.,4.8,0.,4.8,1.,4.8,0.,4.8
1980-11-15 18:25:34.090 ,1,0,0.,4.8,2.,4.8,0.,4.8,0.,4.8
1980-11-15 18:25:38.890 ,1,0,0.,4.8,3.,4.8,0.,4.8,0.,4.8
1980-11-15 18:25:43.690 ,1,0,0.,4.8,3.,4.8,0.,4.8,0.,4.8
1980-11-15 18:25:48.490 ,1,0,0.,4.8,1.,4.8,1.,4.8,0.,4.8
1980-11-15 18:25:53.290 ,1,0,0.,4.8,1.,4.8,0.,4.8,0.,4.8
1980-11-15 18:25:58.090 ,1,0,0.,4.8,0.,4.8,1.,4.8,0.,4.8
1980-11-15 18:26:02.890 ,1,0,0.,4.8,2.,4.8,0.,4.8,0.,4.8
1980-11-15 18:26:07.690 ,1,0,0.,4.8,0.,4.8,1.,4.8,0.,4.8
1980-11-15 18:26:12.490 ,2,0,0.,4.8,2.,4.8,0.,4.8,1.,4.8
1980-11-15 18:26:17.290 ,2,0,0.,4.8,1.,4.8,0.,4.8,0.,4.8
1980-11-15 18:26:22.090 ,2,0,0.,4.8,1.,4.8,0.,4.8,1.,4.8
1980-11-15 18:26:26.890 ,2,0,0.,4.8,1.,4.8,0.,4.8,0.,4.8
1980-11-15 18:26:31.690 ,2,0,0.,4.8,0.,4.8,2.,4.8,0.,4.8
1980-11-15 18:26:36.490 ,2,0,0.,4.8,2.,4.8,0.,4.8,0.,4.8
1980-11-15 18:26:41.290 ,2,0,0.,4.8,1.,4.8,0.,4.8,1.,4.8
1980-11-15 18:26:46.090 ,2,0,0.,4.8,1.,4.8,0.,4.8,0.,4.8
1980-11-15 18:26:50.890 ,2,0,0.,4.8,1.,4.8,0.,4.8,0.,4.8
1980-11-15 18:26:55.690 ,2,0,0.,4.8,0.,4.8,0.,4.8,0.,4.8
1980-11-15 18:27:00.490 ,3,0,0.,4.8,1.,4.8,0.,4.8,0.,4.8
1980-11-15 18:27:05.290 ,3,0,0.,4.8,1.,4.8,1.,4.8,0.,4.8
1980-11-15 18:27:10.090 ,3,0,0.,4.8,1.,4.8,0.,4.8,0.,4.8
1980-11-15 18:27:14.890 ,3,0,0.,4.8,1.,4.8,0.,4.8,0.,4.8
1980-11-15 18:27:19.690 ,3,0,0.,4.8,1.,4.8,0.,4.8,0.,4.8
1980-11-15 18:27:24.490 ,3,0,0.,4.8,0.,4.8,1.,4.8,0.,4.8
1980-11-15 18:27:29.290 ,3,0,0.,4.8,1.,4.8,0.,4.8,0.,4.8
1980-11-15 18:27:34.090 ,3,0,0.,4.8,0.,4.8,0.,4.8,1.,4.8
1980-11-15 18:27:38.890 ,3,0,0.,4.8,0.,4.8,0.,4.8,0.,4.8
1980-11-15 18:27:43.690 ,3,0,0.,4.8,0.,4.8,0.,4.8,0.,4.8
1980-11-15 18:27:48.490 ,4,0,0.,4.8,1.,4.8,0.,4.8,0.,4.8
1980-11-15 18:27:53.290 ,4,0,0.,4.8,1.,4.8,0.,4.8,0.,4.8
1980-11-15 18:27:58.090 ,4,0,0.,4.8,0.,4.8,1.,4.8,0.,4.8
1980-11-15 18:28:02.890 ,4,0,0.,4.8,0.,4.8,0.,4.8,0.,4.8
1980-11-15 18:28:07.690 ,4,0,0.,4.8,1.,4.8,1.,4.8,0.,4.8
1980-11-15 18:28:12.490 ,4,0,0.,4.8,1.,4.8,0.,4.8,0.,4.8
1980-11-15 18:28:17.290 ,4,0,0.,4.8,2.,4.8,0.,4.8,0.,4.8
1980-11-15 18:28:22.090 ,4,0,0.,4.8,1.,4.8,0.,4.8,0.,4.8
1980-11-15 18:28:26.890 ,4,0,0.,4.8,1.,4.8,0.,4.8,0.,4.8
1980-11-15 18:28:31.690 ,4,0,0.,4.8,0.,4.8,0.,4.8,0.,4.8
1980-11-15 18:28:36.490 ,5,0,0.,4.8,0.,4.8,1.,4.8,0.,4.8
1980-11-15 18:28:41.290 ,5,0,0.,4.8,1.,4.8,0.,4.8,1.,4.8
1980-11-15 18:28:46.090 ,5,0,0.,4.8,1.,4.8,0.,4.8,0.,4.8
1980-11-15 18:28:50.890 ,5,0,0.,4.8,0.,4.8,0.,4.8,0.,4.8
1980-11-15 18:28:55.690 ,5,0,0.,4.8,0.,4.8,0.,4.8,0.,4.8
1980-11-15 18:29:00.490 ,5,0,0.,4.8,1.,4.8,0.,4.8,0.,4.8
1980-11-15 18:29:05.290 ,5,0,0.,4.8,1.,4.8,0.,4.8,0.,4.8
1980-11-15 18:29:10.090 ,5,0,0.,4.8,0.,4.8,0.,4.8,0.,4.8
1980-11-15 18:29:14.890 ,5,0,0.,4.8,0.,4.8,0.,4.8,0.,4.8
1980-11-15 18:29:19.690 ,5,0,0.,4.8,2.,4.8,0.,4.8,0.,4.8
1980-11-15 18:29:24.490 ,6,0,0.,4.8,0.,4.8,0.,4.8,0.,4.8
1980-11-15 18:29:29.290 ,6,0,0.,4.8,0.,4.8,0.,4.8,0.,4.8
1980-11-15 18:29:34.090 ,6,0,0.,4.8,0.,4.8,0.,4.8,0.,4.8
1980-11-15 18:29:38.890 ,6,0,0.,4.8,0.,4.8,0.,4.8,0.,4.8
1980-11-15 18:29:43.690 ,6,0,0.,4.8,0.,4.8,1.,4.8,0.,4.8
1980-11-15 18:29:48.490 ,6,0,0.,4.8,0.,4.8,1.,4.8,0.,4.8
1980-11-15 18:29:53.290 ,6,0,0.,4.8,0.,4.8,1.,4.8,0.,4.8
1980-11-15 18:29:58.090 ,6,0,0.,4.8,1.,4.8,0.,4.8,1.,4.8
1980-11-15 18:30:02.890 ,6,0,0.,4.8,1.,4.8,1.,4.8,0.,4.8
1980-11-15 18:30:07.690 ,6,0,0.,4.8,0.,4.8,0.,4.8,0.,4.8
1980-11-15 18:30:12.490 ,7,0,0.,4.8,0.,4.8,0.,4.8,0.,4.8
1980-11-15 18:30:17.290 ,7,0,0.,4.8,1.,4.8,1.,4.8,0.,4.8
1980-11-15 18:30:22.090 ,7,0,0.,4.8,0.,4.8,0.,4.8,1.,4.8
1980-11-15 18:30:26.890 ,7,0,0.,4.8,0.,4.8,1.,4.8,1.,4.8
1980-11-15 18:30:31.690 ,7,0,0.,4.8,0.,4.8,1.,4.8,0.,4.8
1980-11-15 18:30:36.490 ,7,0,0.,4.8,1.,4.8,0.,4.8,1.,4.8
1980-11-15 18:30:41.290 ,7,0,0.,4.8,1.,4.8,0.,4.8,1.,4.8
1980-11-15 18:30:46.090 ,7,0,0.,4.8,2.,4.8,0.,4.8,3.,4.8
1980-11-15 18:30:50.890 ,7,0,0.,4.8,0.,4.8,0.,4.8,0.,4.8
1980-11-15 18:30:55.690 ,7,0,0.,4.8,0.,4.8,0.,4.8,0.,4.8
1980-11-15 18:31:00.490 ,7,0,0.,4.8,0.,4.8,0.,4.8,1.,4.8
1980-11-15 18:31:05.290 ,7,0,0.,4.8,1.,4.8,2.,4.8,0.,4.8
1980-11-15 18:31:10.090 ,7,0,0.,4.8,0.,4.8,0.,4.8,0.,4.8
1980-11-15 18:31:14.890 ,7,0,0.,4.8,1.,4.8,1.,4.8,0.,4.8
1980-11-15 18:31:19.690 ,7,0,0.,4.8,0.,4.8,0.,4.8,0.,4.8
1980-11-15 18:31:24.490 ,7,0,0.,4.8,0.,4.8,1.,4.8,0.,4.8
1980-11-15 18:31:29.290 ,7,0,0.,4.8,1.,4.8,0.,4.8,0.,4.8
1980-11-15 18:31:34.090 ,7,0,0.,4.8,0.,4.8,0.,4.8,0.,4.8
1980-11-15 18:31:38.890 ,7,0,0.,4.8,0.,4.8,0.,4.8,1.,4.8
1980-11-15 18:31:43.690 ,7,0,0.,4.8,0.,4.8,0.,4.8,0.,4.8
1980-11-15 18:31:48.490 ,6,0,0.,4.8,0.,4.8,0.,4.8,0.,4.8
1980-11-15 18:31:53.290 ,6,0,0.,4.8,0.,4.8,0.,4.8,0.,4.8
1980-11-15 18:31:58.090 ,6,0,0.,4.8,0.,4.8,1.,4.8,0.,4.8
1980-11-15 18:32:02.890 ,6,0,0.,4.8,0.,4.8,0.,4.8,0.,4.8
1980-11-15 18:32:07.690 ,6,0,0.,4.8,0.,4.8,0.,4.8,0.,4.8
1980-11-15 18:32:12.490 ,6,0,0.,4.8,0.,4.8,0.,4.8,0.,4.8
1980-11-15 18:32:17.290 ,6,0,0.,4.8,0.,4.8,1.,4.8,1.,4.8
1980-11-15 18:32:22.090 ,6,0,0.,4.8,0.,4.8,0.,4.8,0.,4.8
1980-11-15 18:32:26.890 ,6,0,0.,4.8,0.,4.8,0.,4.8,2.,4.8
1980-11-15 18:32:31.690 ,6,0,0.,4.8,0.,4.8,0.,4.8,0.,4.8
1980-11-15 18:32:36.490 ,5,0,0.,4.8,1.,4.8,1.,4.8,0.,4.8
1980-11-15 18:32:41.290 ,5,0,0.,4.8,1.,4.8,0.,4.8,1.,4.8
1980-11-15 18:32:46.090 ,5,0,0.,4.8,0.,4.8,0.,4.8,0.,4.8
1980-11-15 18:32:50.890 ,5,0,0.,4.8,0.,4.8,0.,4.8,0.,4.8
1980-11-15 18:32:55.690 ,5,0,0.,4.8,0.,4.8,1.,4.8,0.,4.8
1980-11-15 18:33:00.490 ,5,0,0.,4.8,0.,4.8,0.,4.8,0.,4.8
1980-11-15 18:33:05.290 ,5,0,0.,4.8,0.,4.8,0.,4.8,0.,4.8
1980-11-15 18:33:10.090 ,5,0,0.,4.8,0.,4.8,0.,4.8,0.,4.8
1980-11-15 18:33:14.890 ,5,0,0.,4.8,0.,4.8,0.,4.8,1.,4.8
1980-11-15 18:33:19.690 ,5,0,0.,4.8,1.,4.8,0.,4.8,0.,4.8
1980-11-15 18:33:24.490 ,4,0,0.,4.8,0.,4.8,1.,4.8,0.,4.8
1980-11-15 18:33:29.290 ,4,0,0.,4.8,0.,4.8,0.,4.8,0.,4.8